Tracking 29892 objects as of 21-Nov-2024
HD Live streaming from Space Station
objects crossing your sky now

STARLINK-30151

Track STARLINK-30151 now!
10-day predictions
STARLINK-30151 is classified as:


NORAD ID: 56827
Int'l Code: 2023-079E
Perigee: 565.4 km
Apogee: 567.0 km
Inclination: 43.0 °
Period: 95.8 minutes
Semi major axis: 6937 km
RCS: Unknown
Launch date: June 4, 2023
Source: United States (US)
Launch site: AIR FORCE EASTERN TEST RANGE (AFETR)
Your satellite tracking list
Your tracking list is empty




NASA's NSSDC Master Catalog

Two Line Element Set (TLE):
1 56827U 23079E   24325.89470806  .00000855  00000-0  78367-4 0  9990
2 56827  43.0022 161.8112 0001179 276.6996  83.3712 15.02543300 81617
Source of the keplerian elements: AFSPC